This demonstration page uses our WeatherBlox Daily Observations layout. Learn more.

Left ArrowRight Arrow

Hourly Observations for January 1, 2016

Temp ( °F °C ) Dew Point ( °F °C ) Humidity (%) Winds ( mph kmh ) Pressure ( in mb ) Visibility ( mi km ) Precip ( " mm )
12:53 am 00:53 Cloudy 35 1.7 32 0 89 89 ENE 13 20 30.40 1029 10 16 0.00 0.00
1:53 am 01:53 Cloudy 35 1.7 32 0 89 89 NE 15 24 30.39 1029 10 16 0.00 0.00
2:53 am 02:53 Cloudy 34 1.1 31 -0.6 89 89 NE 16 26 30.39 1029 10 16 0.00 0.00
3:53 am 03:53 Cloudy 34 1.1 31 -0.6 89 89 NE 16 26 30.40 1030 10 16 0.00 0.00
4:53 am 04:53 Cloudy 34 1.1 31 -0.6 89 89 ENE 14 22 30.41 1030 10 16 0.00 0.00
5:53 am 05:53 Cloudy 33 0.6 30 -1.1 89 89 ENE 13 20 30.43 1030 10 16 0.00 0.03
6:53 am 06:53 Cloudy 33 0.6 29 -1.7 85 85 ENE 12 19 30.45 1031 10 16 0.00 0.00
7:30 am 07:30 Cloudy 34 1 28 -2 81 81 NE 9 15 30.59 1036 10 16 0.00 0.00
7:53 am 07:53 Cloudy 33 0.6 29 -1.7 85 85 NE 9 15 30.50 1033 10 16 0.00 0.00
8:53 am 08:53 Cloudy 33 0.6 28 -2.2 82 82 ENE 10 17 30.52 1034 10 16 0.00 0.00
9:53 am 09:53 Cloudy 33 0.6 29 -1.7 85 85 NE 9 15 30.54 1034 9 14 0.00 0.00
10:53 am 10:53 Cloudy 33 0.6 29 -1.7 85 85 NE 9 15 30.55 1035 10 16 0.00 0.00
11:53 am 11:53 Cloudy with Mist and Fog 33 0.6 30 -1.1 89 89 NE 7 11 30.55 1035 3 4 0.00 0.00
12:31 pm 12:31 Cloudy with Mist and Fog 34 1.1 31 -0.6 89 89 NE 8 13 30.62 1037 3 4 0.00 0.00
12:53 pm 12:53 Cloudy with Mist and Fog 34 1.1 31 -0.6 89 89 NE 8 13 30.52 1033 3 4 0.00 0.00
1:17 pm 13:17 Cloudy with Mist and Fog 34 1.1 31 -0.6 89 89 NE 8 13 30.59 1036 3 5 0.00 0.00
1:43 pm 13:43 Cloudy with Mist and Fog 34 1.1 31 -0.6 89 89 ENE 8 13 30.59 1036 4 6 0.00 0.00
1:53 pm 13:53 Cloudy with Mist and Fog 34 1.1 31 -0.6 89 89 NE 8 13 30.49 1033 3 5 0.00 0.00
2:01 pm 14:01 Cloudy with Mist and Fog 34 1.1 31 -0.6 89 89 NE 7 11 30.59 1036 4 6 0.00 0.00
2:09 pm 14:09 Cloudy with Mist and Fog 34 1.1 30 -1.1 85 85 NE 8 13 30.59 1036 4 6 0.00 0.00
2:28 pm 14:28 Cloudy 34 1 30 -1 87 87 ENE 7 11 30.59 1036 7 11 0.00 0.00
2:46 pm 14:46 Cloudy with Mist and Fog 34 1 30 -1 87 87 NE 10 17 30.56 1035 5 8 0.00 0.00
2:53 pm 14:53 Cloudy with Mist and Fog 33 0.6 30 -1.1 89 89 NE 8 13 30.48 1032 5 8 0.00 0.00
3:53 pm 15:53 Cloudy 34 1.1 30 -1.1 85 85 ENE 9 15 30.48 1032 9 14 0.00 0.00
4:00 pm 16:00 Cloudy 34 1 30 -1 87 87 ENE 8 13 30.56 1035 9 14 0.00 0.00
4:31 pm 16:31 Cloudy with Mist and Fog 34 1.1 30 -1.1 85 85 NE 9 15 30.59 1036 6 10 0.00 0.00
4:53 pm 16:53 Cloudy with Mist and Fog 34 1.1 30 -1.1 85 85 NE 9 15 30.48 1032 6 10 0.00 0.00
5:44 pm 17:44 Cloudy 34 1 30 -1 87 87 NE 8 13 30.59 1036 7 11 0.00 0.00
5:53 pm 17:53 Cloudy 43 6 37 3 81 81 ENE 16 26 30.27 1025 8 13 0.00 0.00
6:53 pm 18:53 Cloudy 34 1.1 29 -1.7 82 82 NE 7 11 30.49 1032 10 16 0.00 0.00
7:44 pm 19:44 Cloudy 34 1 28 -2 81 81 NE 5 7 30.59 1036 10 16 0.00 0.00
7:53 pm 19:53 Cloudy 34 1.1 28 -2.2 79 79 NE 5 7 30.50 1033 10 16 0.00 0.00
8:53 pm 20:53 Cloudy 34 1.1 27 -2.8 76 76 Calm 30.50 1033 10 16 0.00 0.00
9:53 pm 21:53 Cloudy 35 1.7 28 -2.2 76 76 Calm 30.51 1033 10 16 0.00 0.00
10:53 pm 22:53 Cloudy 34 1.1 28 -2.2 79 79 NNW 3 6 30.50 1033 10 16 0.00 0.00
11:49 pm 23:49 Cloudy 34 1 28 -2 81 81 N 6 9 30.59 1036 10 16 0.00 0.00
11:53 pm 23:53 Cloudy 34 1.1 28 -2.2 79 79 N 6 9 30.48 1032 10 16 0.00 0.00

Powered by AerisWeather